N125UW GVAC-GOBD

Flight info

Callsign N125UW
Flight time N/A
Altitude 19000
Route IRPOT1A POLMO DCT LUMPO DCT LIGOV LIGOV1A
Aircraft AT76/M-SDFGIRY/S

Departure

Time 2026-04-22 22:05
Airport Amílcar Cabral International Airport (GVAC)

Arrival

Time N/A
Airport Blaise Diagne International Airport (GOBD)
Time Latitude Longitude Altitude Speed Heading
2026-04-22 21:35 16.73365 -22.94492 203 ft 0 kts 90°
2026-04-22 21:55 16.73365 -22.94491 197 ft 0 kts 90°
2026-04-22 21:55 16.73370 -22.94524 207 ft 9 kts 118°
2026-04-22 21:55 16.73388 -22.94547 197 ft 0 kts 166°
2026-04-22 21:55 16.73385 -22.94548 197 ft 5 kts 179°
2026-04-22 21:56 16.73356 -22.94557 200 ft 9 kts 217°
2026-04-22 21:56 16.73318 -22.94588 197 ft 0 kts 207°
2026-04-22 21:56 16.73309 -22.94592 203 ft 5 kts 198°
2026-04-22 21:56 16.73245 -22.94594 197 ft 11 kts 179°
2026-04-22 21:57 16.73206 -22.94594 197 ft 0 kts 181°
2026-04-22 21:57 16.73182 -22.94594 207 ft 8 kts 179°
2026-04-22 21:57 16.73117 -22.94593 197 ft 8 kts 184°
2026-04-22 21:58 16.73076 -22.94621 197 ft 5 kts 239°
2026-04-22 21:58 16.73076 -22.94622 197 ft 0 kts 239°
2026-04-22 21:58 16.73074 -22.94625 202 ft 4 kts 238°
2026-04-22 21:58 16.73041 -22.94677 202 ft 12 kts 230°
2026-04-22 21:59 16.72941 -22.94691 189 ft 19 kts 179°
2026-04-22 21:59 16.72807 -22.94690 185 ft 15 kts 179°
2026-04-22 21:59 16.72698 -22.94690 188 ft 18 kts 179°
2026-04-22 21:59 16.72645 -22.94689 182 ft 0 kts 179°
2026-04-22 22:02 16.72602 -22.94689 181 ft 11 kts 179°
2026-04-22 22:02 16.72539 -22.94688 180 ft 6 kts 180°
2026-04-22 22:02 16.72472 -22.94687 179 ft 10 kts 179°
2026-04-22 22:03 16.72419 -22.94699 179 ft 7 kts 221°
2026-04-22 22:03 16.72408 -22.94755 180 ft 8 kts 269°
2026-04-22 22:03 16.72407 -22.94779 181 ft 5 kts 270°
2026-04-22 22:03 16.72408 -22.94798 181 ft 0 kts 271°
2026-04-22 22:04 16.72408 -22.94803 181 ft 3 kts 270°
2026-04-22 22:04 16.72407 -22.94851 182 ft 9 kts 269°
2026-04-22 22:04 16.72418 -22.94883 183 ft 1 kts 322°
2026-04-22 22:04 16.72425 -22.94884 183 ft 0 kts 348°
2026-04-22 22:05 16.72583 -22.94884 183 ft 55 kts
2026-04-22 22:05 16.73176 -22.94888 196 ft 111 kts
2026-04-22 22:05 16.73974 -22.94952 619 ft 116 kts
2026-04-22 22:05 16.74770 -22.94997 1158 ft 116 kts
2026-04-22 22:06 16.75595 -22.95018 1638 ft 121 kts
2026-04-22 22:06 16.76530 -22.95013 1797 ft 156 kts
2026-04-22 22:06 16.77583 -22.95017 2538 ft 135 kts
2026-04-22 22:06 16.78545 -22.95012 2808 ft 149 kts
2026-04-22 22:07 16.79586 -22.94972 3180 ft 149 kts
2026-04-22 22:07 16.80661 -22.94945 3429 ft 159 kts
2026-04-22 22:07 16.81766 -22.94931 3792 ft 158 kts 358°
2026-04-22 22:07 16.82868 -22.94934 4158 ft 158 kts 354°
2026-04-22 22:08 16.83985 -22.94960 4446 ft 164 kts 355°
2026-04-22 22:08 16.85110 -22.94979 4906 ft 156 kts 353°
2026-04-22 22:08 16.86139 -22.94827 5354 ft 153 kts 21°
2026-04-22 22:08 16.86860 -22.93976 5534 ft 174 kts 69°
2026-04-22 22:09 16.86871 -22.92726 5791 ft 176 kts 110°
2026-04-22 22:09 16.86580 -22.91404 5783 ft 198 kts 95°
2026-04-22 22:09 16.86657 -22.89916 5829 ft 211 kts 83°
2026-04-22 22:09 16.86888 -22.88397 6080 ft 213 kts 78°
2026-04-22 22:10 16.87151 -22.86859 6313 ft 216 kts 84°
2026-04-22 22:10 16.87252 -22.85285 6568 ft 218 kts 90°
2026-04-22 22:10 16.87249 -22.83699 6836 ft 219 kts 93°
2026-04-22 22:10 16.87216 -22.82131 7108 ft 219 kts 94°
2026-04-22 22:11 16.87183 -22.80543 7373 ft 220 kts 94°
2026-04-22 22:11 16.87159 -22.78946 7638 ft 220 kts 93°
2026-04-22 22:11 16.87154 -22.77346 7900 ft 221 kts 93°
2026-04-22 22:11 16.87001 -22.75775 8109 ft 215 kts 117°
2026-04-22 22:12 16.86310 -22.74412 8354 ft 211 kts 129°
2026-04-22 22:12 16.85481 -22.73155 8626 ft 210 kts 133°
2026-04-22 22:12 16.84610 -22.71933 8896 ft 209 kts 134°
2026-04-22 22:12 16.83742 -22.70712 9161 ft 210 kts 134°
2026-04-22 22:13 16.82881 -22.69482 9412 ft 210 kts 133°
2026-04-22 22:13 16.82030 -22.68241 9670 ft 211 kts 133°
2026-04-22 22:13 16.81185 -22.66987 9923 ft 211 kts 133°
2026-04-22 22:13 16.80352 -22.65746 10142 ft 212 kts 133°
2026-04-22 22:14 16.79499 -22.64482 10364 ft 213 kts 133°
2026-04-22 22:14 16.78645 -22.63217 10578 ft 214 kts 133°
2026-04-22 22:14 16.77786 -22.61945 10791 ft 215 kts 132°
2026-04-22 22:14 16.76921 -22.60668 11001 ft 216 kts 132°
2026-04-22 22:15 16.76053 -22.59386 11219 ft 217 kts 132°
2026-04-22 22:15 16.75182 -22.58098 11434 ft 218 kts 132°
2026-04-22 22:15 16.74307 -22.56803 11643 ft 219 kts 131°
2026-04-22 22:15 16.73428 -22.55504 11851 ft 220 kts 131°
2026-04-22 22:16 16.72546 -22.54200 12056 ft 220 kts 131°
2026-04-22 22:16 16.71672 -22.52907 12257 ft 221 kts 131°
2026-04-22 22:16 16.70782 -22.51591 12460 ft 222 kts 131°
2026-04-22 22:16 16.69887 -22.50269 12658 ft 223 kts 131°
2026-04-22 22:17 16.68989 -22.48943 12853 ft 224 kts 131°
2026-04-22 22:17 16.68086 -22.47612 13040 ft 225 kts 130°
2026-04-22 22:17 16.67182 -22.46276 13235 ft 226 kts 130°
2026-04-22 22:17 16.66274 -22.44934 13419 ft 227 kts 130°
2026-04-22 22:18 16.65364 -22.43587 13608 ft 227 kts 130°
2026-04-22 22:18 16.64449 -22.42237 13786 ft 228 kts 130°
2026-04-22 22:18 16.63542 -22.40900 13945 ft 229 kts 130°
2026-04-22 22:18 16.62619 -22.39538 14097 ft 230 kts 130°
2026-04-22 22:19 16.61695 -22.38174 14251 ft 230 kts 130°
2026-04-22 22:19 16.60768 -22.36806 14395 ft 231 kts 130°
2026-04-22 22:19 16.59839 -22.35435 14545 ft 232 kts 130°
2026-04-22 22:19 16.58907 -22.34061 14689 ft 233 kts 130°
2026-04-22 22:20 16.57970 -22.32680 14837 ft 233 kts 131°
2026-04-22 22:20 16.57027 -22.31292 14978 ft 234 kts 131°
2026-04-22 22:20 16.56086 -22.29906 15116 ft 235 kts 131°
2026-04-22 22:20 16.55141 -22.28517 15248 ft 235 kts 130°
2026-04-22 22:21 16.54333 -22.27041 15360 ft 239 kts 119°
2026-04-22 22:21 16.53681 -22.25438 15473 ft 241 kts 116°
2026-04-22 22:21 16.53057 -22.23810 15584 ft 243 kts 116°
2026-04-22 22:21 16.52420 -22.22180 15696 ft 243 kts 117°
2026-04-22 22:22 16.51746 -22.20562 15819 ft 243 kts 118°
2026-04-22 22:22 16.51052 -22.18952 15945 ft 244 kts 118°
2026-04-22 22:22 16.50357 -22.17339 16060 ft 243 kts 118°
2026-04-22 22:22 16.49679 -22.15755 16319 ft 236 kts 119°
2026-04-22 22:23 16.49008 -22.14194 16470 ft 236 kts 118°
2026-04-22 22:23 16.48335 -22.12631 16600 ft 236 kts 118°
2026-04-22 22:23 16.47663 -22.11065 16719 ft 237 kts 119°
2026-04-22 22:23 16.46988 -22.09496 16858 ft 238 kts 119°
2026-04-22 22:24 16.46311 -22.07923 16968 ft 238 kts 119°
2026-04-22 22:24 16.45642 -22.06365 17085 ft 239 kts 119°
2026-04-22 22:24 16.44959 -22.04782 17204 ft 239 kts 119°
2026-04-22 22:24 16.44278 -22.03197 17320 ft 240 kts 119°
2026-04-22 22:25 16.43594 -22.01606 17432 ft 241 kts 119°
2026-04-22 22:25 16.42907 -22.00014 17542 ft 241 kts 119°
2026-04-22 22:25 16.42221 -21.98420 17651 ft 242 kts 119°
2026-04-22 22:25 16.41529 -21.96816 17751 ft 242 kts 119°
2026-04-22 22:26 16.40838 -21.95211 17853 ft 243 kts 119°
2026-04-22 22:26 16.40146 -21.93602 17946 ft 243 kts 119°
2026-04-22 22:26 16.39450 -21.91994 18047 ft 244 kts 119°
2026-04-22 22:26 16.38754 -21.90378 18143 ft 245 kts 119°
2026-04-22 22:27 16.38058 -21.88761 18246 ft 245 kts 119°
2026-04-22 22:27 16.37358 -21.87141 18335 ft 246 kts 119°
2026-04-22 22:27 16.36667 -21.85536 18413 ft 246 kts 119°
2026-04-22 22:27 16.35964 -21.83910 18495 ft 246 kts 119°
2026-04-22 22:28 16.35258 -21.82275 18574 ft 247 kts 119°
2026-04-22 22:28 16.34554 -21.80643 18649 ft 247 kts 119°
2026-04-22 22:28 16.33845 -21.79004 18713 ft 248 kts 119°
2026-04-22 22:28 16.33137 -21.77362 18782 ft 249 kts 119°
2026-04-22 22:29 16.32426 -21.75720 18865 ft 248 kts 119°
2026-04-22 22:29 16.31718 -21.74081 18946 ft 248 kts 119°
2026-04-22 22:29 16.31008 -21.72438 18999 ft 250 kts 119°
2026-04-22 22:29 16.30290 -21.70781 19021 ft 252 kts 119°
2026-04-22 22:30 16.29571 -21.69122 19033 ft 255 kts 119°
2026-04-22 22:30 16.28839 -21.67425 19039 ft 258 kts 119°
2026-04-22 22:30 16.28100 -21.65710 19042 ft 261 kts 118°
2026-04-22 22:30 16.27357 -21.63976 19044 ft 263 kts 117°
2026-04-22 22:31 16.26661 -21.62202 19042 ft 266 kts 115°
2026-04-22 22:31 16.26014 -21.60391 19042 ft 267 kts 114°
2026-04-22 22:31 16.25378 -21.58567 19042 ft 269 kts 114°
2026-04-22 22:31 16.24738 -21.56763 19041 ft 269 kts 114°
2026-04-22 22:32 16.24082 -21.54934 19036 ft 270 kts 114°
2026-04-22 22:32 16.23427 -21.53097 19037 ft 270 kts 114°
2026-04-22 22:32 16.22768 -21.51261 19037 ft 271 kts 114°
2026-04-22 22:32 16.22111 -21.49422 19038 ft 271 kts 114°
2026-04-22 22:33 16.21451 -21.47582 19042 ft 272 kts 114°
2026-04-22 22:33 16.20791 -21.45737 19042 ft 272 kts 114°
2026-04-22 22:33 16.20131 -21.43891 19042 ft 272 kts 114°
2026-04-22 22:33 16.19469 -21.42044 19042 ft 273 kts 114°
2026-04-22 22:34 16.19029 -21.40819 19042 ft 273 kts 114°
2026-04-22 22:34 16.18366 -21.38966 19042 ft 273 kts 114°
2026-04-22 22:34 16.17702 -21.37116 19041 ft 273 kts 114°
2026-04-22 22:34 16.16823 -21.34664 19042 ft 273 kts 114°
2026-04-22 22:35 16.16158 -21.32813 19042 ft 273 kts 114°
2026-04-22 22:35 16.15708 -21.31562 19042 ft 273 kts 114°
2026-04-22 22:35 16.15045 -21.29713 19042 ft 273 kts 114°
2026-04-22 22:35 16.14378 -21.27861 19043 ft 273 kts 114°
2026-04-22 22:36 16.13713 -21.26006 19043 ft 273 kts 114°
2026-04-22 22:36 16.13048 -21.24157 19042 ft 273 kts 114°
2026-04-22 22:36 16.12390 -21.22327 19042 ft 273 kts 114°
2026-04-22 22:36 16.11725 -21.20477 19042 ft 273 kts 114°
2026-04-22 22:37 16.11056 -21.18621 19042 ft 274 kts 114°
2026-04-22 22:37 16.10391 -21.16770 19042 ft 273 kts 114°
2026-04-22 22:37 16.09722 -21.14914 19043 ft 273 kts 114°
2026-04-22 22:37 16.09056 -21.13064 19036 ft 274 kts 114°
2026-04-22 22:38 16.08388 -21.11209 19037 ft 274 kts 114°
2026-04-22 22:38 16.07718 -21.09355 19036 ft 274 kts 114°
2026-04-22 22:38 16.07053 -21.07503 19036 ft 274 kts 114°
2026-04-22 22:38 16.06385 -21.05651 19036 ft 274 kts 114°
2026-04-22 22:39 16.05716 -21.03797 19037 ft 274 kts 114°
2026-04-22 22:39 16.05048 -21.01945 19037 ft 274 kts 114°
2026-04-22 22:39 16.04378 -21.00092 19038 ft 274 kts 114°
2026-04-22 22:39 16.03711 -20.98239 19037 ft 274 kts 114°
2026-04-22 22:40 16.03042 -20.96387 19037 ft 274 kts 114°
2026-04-22 22:40 16.02373 -20.94534 19037 ft 274 kts 114°
2026-04-22 22:40 16.01703 -20.92681 19036 ft 274 kts 114°
2026-04-22 22:40 16.01032 -20.90830 19036 ft 274 kts 114°
2026-04-22 22:41 16.00363 -20.88975 19037 ft 274 kts 114°
2026-04-22 22:41 15.99701 -20.87146 19037 ft 274 kts 114°
2026-04-22 22:41 15.99031 -20.85292 19022 ft 274 kts 113°
2026-04-22 22:41 15.98363 -20.83441 19027 ft 273 kts 113°
2026-04-22 22:42 15.97696 -20.81593 19029 ft 273 kts 113°
2026-04-22 22:42 15.97026 -20.79749 19028 ft 273 kts 113°
2026-04-22 22:42 15.96360 -20.77904 19029 ft 273 kts 113°
2026-04-22 22:42 15.95691 -20.76059 19030 ft 272 kts 113°
2026-04-22 22:43 15.95023 -20.74216 19033 ft 272 kts 113°
2026-04-22 22:43 15.94355 -20.72375 19031 ft 272 kts 113°
2026-04-22 22:43 15.93685 -20.70532 19031 ft 272 kts 113°
2026-04-22 22:43 15.93018 -20.68689 19031 ft 272 kts 113°
2026-04-22 22:44 15.92350 -20.66850 19031 ft 272 kts 113°
2026-04-22 22:44 15.91682 -20.65006 19031 ft 272 kts 113°
2026-04-22 22:44 15.91015 -20.63168 19033 ft 272 kts 113°
2026-04-22 22:44 15.90346 -20.61330 19032 ft 272 kts 113°
2026-04-22 22:45 15.89679 -20.59490 19031 ft 272 kts 113°
2026-04-22 22:45 15.89015 -20.57666 19031 ft 272 kts 113°
2026-04-22 22:45 15.88342 -20.55813 19031 ft 272 kts 113°
2026-04-22 22:45 15.87679 -20.53991 19031 ft 272 kts 113°
2026-04-22 22:46 15.87007 -20.52147 19032 ft 272 kts 113°
2026-04-22 22:46 15.86343 -20.50318 19032 ft 272 kts 113°
2026-04-22 22:46 15.85670 -20.48468 19032 ft 272 kts 113°
2026-04-22 22:46 15.85000 -20.46632 19032 ft 272 kts 113°
2026-04-22 22:47 15.84334 -20.44803 19032 ft 272 kts 113°
2026-04-22 22:47 15.83660 -20.42949 19031 ft 272 kts 113°
2026-04-22 22:47 15.82997 -20.41131 19031 ft 272 kts 113°
2026-04-22 22:47 15.82325 -20.39285 19031 ft 272 kts 113°
2026-04-22 22:48 15.81659 -20.37459 19032 ft 272 kts 113°
2026-04-22 22:48 15.80987 -20.35619 19031 ft 272 kts 113°
2026-04-22 22:48 15.80317 -20.33779 19032 ft 272 kts 113°
2026-04-22 22:48 15.79644 -20.31937 19031 ft 272 kts 113°
2026-04-22 22:49 15.78975 -20.30106 19031 ft 272 kts 113°
2026-04-22 22:49 15.78308 -20.28277 19031 ft 272 kts 113°
2026-04-22 22:49 15.77637 -20.26443 19032 ft 272 kts 113°
2026-04-22 22:49 15.76967 -20.24606 19031 ft 272 kts 113°
2026-04-22 22:50 15.76293 -20.22762 19032 ft 272 kts 113°
2026-04-22 22:50 15.75626 -20.20942 19031 ft 272 kts 113°
2026-04-22 22:50 15.74955 -20.19101 19025 ft 272 kts 113°
2026-04-22 22:50 15.74282 -20.17263 19025 ft 272 kts 113°
2026-04-22 22:51 15.73613 -20.15435 19026 ft 272 kts 113°
2026-04-22 22:51 15.72933 -20.13577 19018 ft 272 kts 113°
2026-04-22 22:51 15.72266 -20.11749 19023 ft 272 kts 113°
2026-04-22 22:51 15.71597 -20.09919 19024 ft 271 kts 113°
2026-04-22 22:52 15.70929 -20.08100 19026 ft 271 kts 112°
2026-04-22 22:52 15.70254 -20.06255 19022 ft 271 kts 113°
2026-04-22 22:52 15.69585 -20.04433 19022 ft 271 kts 113°
2026-04-22 22:52 15.68910 -20.02598 19023 ft 271 kts 113°
2026-04-22 22:53 15.68247 -20.00797 19023 ft 271 kts 113°
2026-04-22 22:53 15.67573 -19.98952 19021 ft 271 kts 112°
2026-04-22 22:53 15.66931 -19.97119 19020 ft 271 kts 112°
2026-04-22 22:53 15.66286 -19.95294 19020 ft 271 kts 112°
2026-04-22 22:54 15.65635 -19.93473 19020 ft 271 kts 112°
2026-04-22 22:54 15.64974 -19.91627 19020 ft 271 kts 112°
2026-04-22 22:54 15.64330 -19.89820 19020 ft 270 kts 112°
2026-04-22 22:54 15.63672 -19.87981 19020 ft 270 kts 112°
2026-04-22 22:55 15.63016 -19.86139 19020 ft 270 kts 112°
2026-04-22 22:55 15.62364 -19.84312 19021 ft 270 kts 112°
2026-04-22 22:55 15.61061 -19.80670 19021 ft 270 kts 112°
2026-04-22 22:56 15.60405 -19.78837 19017 ft 270 kts 112°
2026-04-22 22:56 15.59762 -19.77032 19018 ft 270 kts 112°
2026-04-22 22:56 15.59101 -19.75184 19018 ft 270 kts 112°
2026-04-22 22:56 15.58447 -19.73357 19017 ft 270 kts 112°
2026-04-22 22:57 15.57797 -19.71540 19016 ft 270 kts 112°
2026-04-22 22:57 15.57145 -19.69722 19017 ft 270 kts 112°
2026-04-22 22:57 15.56494 -19.67902 19017 ft 270 kts 112°
2026-04-22 22:57 15.55841 -19.66080 19016 ft 270 kts 112°
2026-04-22 22:58 15.55180 -19.64236 19017 ft 270 kts 112°
2026-04-22 22:58 15.54525 -19.62405 19018 ft 270 kts 112°
2026-04-22 22:58 15.53872 -19.60589 19019 ft 270 kts 112°
2026-04-22 22:58 15.53217 -19.58762 19017 ft 270 kts 112°
2026-04-22 22:59 15.52563 -19.56935 19017 ft 270 kts 112°
2026-04-22 22:59 15.51905 -19.55106 19018 ft 270 kts 112°
2026-04-22 22:59 15.51259 -19.53304 19018 ft 270 kts 112°
2026-04-22 22:59 15.50603 -19.51477 19019 ft 270 kts 112°
2026-04-22 23:00 15.49947 -19.49651 19019 ft 270 kts 112°
2026-04-22 23:00 15.49289 -19.47823 19019 ft 270 kts 112°
2026-04-22 23:00 15.48632 -19.45995 19020 ft 270 kts 112°
2026-04-22 23:00 15.47976 -19.44166 19020 ft 270 kts 112°
2026-04-22 23:01 15.47318 -19.42340 19022 ft 270 kts 112°
2026-04-22 23:01 15.46657 -19.40516 19022 ft 270 kts 112°
2026-04-22 23:01 15.45928 -19.38728 19016 ft 269 kts 117°
2026-04-22 23:01 15.45099 -19.37015 19017 ft 269 kts 120°
2026-04-22 23:02 15.44227 -19.35298 19017 ft 269 kts 120°
2026-04-22 23:02 15.43356 -19.33583 19017 ft 269 kts 120°
2026-04-22 23:02 15.42505 -19.31856 19018 ft 269 kts 119°
2026-04-22 23:02 15.41665 -19.30120 19018 ft 269 kts 118°
2026-04-22 23:03 15.40827 -19.28382 19017 ft 269 kts 118°
2026-04-22 23:03 15.39992 -19.26651 19017 ft 269 kts 118°
2026-04-22 23:03 15.39154 -19.24917 19015 ft 269 kts 118°
2026-04-22 23:03 15.38317 -19.23183 19015 ft 269 kts 118°
2026-04-22 23:04 15.37481 -19.21451 19016 ft 269 kts 118°
2026-04-22 23:04 15.36643 -19.19716 19016 ft 269 kts 118°
2026-04-22 23:04 15.35808 -19.17985 19015 ft 269 kts 118°
2026-04-22 23:04 15.34979 -19.16269 19015 ft 269 kts 118°
2026-04-22 23:05 15.34445 -19.15159 19015 ft 269 kts 118°